This is the latest recevied weather packets stored in our database for station/object KC3BHK-2. If no packets are shown the sender has not sent any weather packets the latest 10 day(s).
| Time | Temp. | Humidity | Pressure | Rain* | Wind** | Luminosity | Snow |
|---|---|---|---|---|---|---|---|
| 1778057987 | 18.89° C | - | - | 0 mm | 3.13 m/s, 162° | - | - |
| 1778057682 | 19.44° C | - | - | 0 mm | 4.02 m/s, 173° | - | - |
| 1778057376 | 20° C | - | - | 0 mm | 4.47 m/s, 169° | - | - |
| 1778057069 | 20° C | - | - | 0 mm | 2.68 m/s, 142° | - | - |
| 1778056764 | 19.44° C | - | - | 0 mm | 3.58 m/s, 141° | - | - |
| 1778056459 | 19.44° C | - | - | 0 mm | 2.68 m/s, 155° | - | - |
| 1778056155 | 19.44° C | - | - | 0 mm | 4.02 m/s, 172° | - | - |
| 1778055850 | 18.89° C | - | - | 0 mm | 3.13 m/s, 152° | - | - |
| 1778055545 | 19.44° C | - | - | 0 mm | 3.13 m/s, 187° | - | - |
| 1778055237 | 20° C | - | - | 0 mm | 3.58 m/s, 172° | - | - |
| 1778054933 | 18.89° C | - | - | 0 mm | 3.58 m/s, 146° | - | - |
| 1778054628 | 18.89° C | - | - | 0 mm | 3.58 m/s, 183° | - | - |
| 1778054323 | 19.44° C | - | - | 0 mm | 4.47 m/s, 138° | - | - |
| 1778054018 | 18.89° C | - | - | 0 mm | 3.58 m/s, 166° | - | - |
| 1778053713 | 18.89° C | - | - | 0 mm | 2.68 m/s, 150° | - | - |
| 1778053404 | 18.89° C | - | - | 0 mm | 2.68 m/s, 166° | - | - |
| 1778053099 | 20° C | - | - | 0 mm | 4.02 m/s, 139° | - | - |
| 1778052795 | 19.44° C | - | - | 0 mm | 2.24 m/s, 155° | - | - |
| 1778052490 | 18.89° C | - | - | 0 mm | 4.02 m/s, 143° | - | - |
| 1778052186 | 19.44° C | - | - | 0 mm | 2.68 m/s, 150° | - | - |
| 1778051880 | 19.44° C | - | - | 0 mm | 3.13 m/s, 177° | - | - |
| 1778051572 | 20° C | - | - | 0 mm | 1.79 m/s, 162° | - | - |
| 1778051268 | 20° C | - | - | 0 mm | 4.47 m/s, 134° | - | - |
| 1778050963 | 20° C | - | - | 0 mm | 3.13 m/s, 145° | - | - |
| 1778050659 | 20° C | - | - | 0 mm | 3.13 m/s, 113° | - | - |
* Rain latest hour (hover to see other rain measurements)
** Current wind speed in m/s (hover to see current wind gust speed)